This demonstration page uses our WeatherBlox Daily Observations layout. Learn more.

Left ArrowRight Arrow

Hourly Observations for May 23, 2022

Temp ( °F °C ) Dew Point ( °F °C ) Humidity (%) Winds ( mph kmh ) Pressure ( in mb ) Visibility ( mi km ) Precip ( " mm )
12:15 am 00:15 Clear 57 14.1 33 0.7 40 40 S 9 15 30.24 1024 10 16 0.00 0.00
12:35 am 00:35 Clear 57 14.1 33 0.6 40 40 S 12 19 30.23 1024 10 16 0.00 0.00
12:55 am 00:55 Clear 57 13.9 33 0.6 41 41 S 9 15 30.24 1024 10 16 0.00 0.00
1:15 am 01:15 Clear 57 13.7 33 0.8 42 42 SSW 8 13 30.23 1024 10 16 0.00 0.00
1:35 am 01:35 Clear 56 13.6 33 0.6 41 41 S 13 20 30.23 1024 10 16 0.00 0.00
1:55 am 01:55 Partly Cloudy 57 14 33 0.5 40 40 S 12 19 30.21 1023 10 16 0.00 0.00
2:15 am 02:15 Partly Cloudy 56 13.6 33 0.6 41 41 S 12 19 30.22 1023 10 16 0.00 0.00
2:35 am 02:35 Partly Cloudy 56 13.6 33 0.6 41 41 S 9 15 30.21 1023 10 16 0.00 0.00
2:55 am 02:55 Partly Cloudy 56 13.3 33 0.6 42 42 S 9 15 30.21 1023 10 16 0.00 0.00
3:15 am 03:15 Clear 56 13.1 34 0.9 44 44 S 12 19 30.20 1023 10 16 0.00 0.00
3:35 am 03:35 Clear 55 12.6 35 1.4 47 47 S 15 24 30.20 1023 10 16 0.00 0.00
3:55 am 03:55 Partly Cloudy 54 12.3 35 1.9 49 49 S 12 19 30.20 1023 10 16 0.00 0.00
4:17 am 04:17 Partly Cloudy 54 12 36 2 51 51 S 13 20 30.20 1023 10 16 0.00 0.00
4:35 am 04:35 Mostly Cloudy 54 12 36 2.1 51 51 S 12 19 30.21 1023 10 16 0.00 0.00
4:55 am 04:55 Mostly Cloudy 53 11.8 36 2.1 52 52 S 14 22 30.20 1023 10 16 0.00 0.00
5:15 am 05:15 Mostly Cloudy 54 12 35 1.8 50 50 S 14 22 30.20 1023 10 16 0.00 0.00
5:35 am 05:35 Partly Cloudy 54 12 35 1.9 50 50 SSE 12 19 30.20 1023 10 16 0.00 0.00
7:15 am 07:15 Sunny 53 11.5 38 3.1 57 57 S 16 26 30.21 1023 10 16 0.00 0.00
7:35 am 07:35 Sunny 52 11.2 38 3.3 59 59 S 13 20 30.22 1023 10 16 0.00 0.00
7:55 am 07:55 Sunny with Drizzle 52 11 39 4.1 63 63 SSE 12 19 30.22 1023 10 16 0.00 0.00
8:15 am 08:15 Partly Cloudy with Light Rain 51 10.5 40 4.7 68 68 S 21 33 30.24 1024 10 16 0.00 0.00
8:35 am 08:35 Partly Cloudy with Drizzle 49 9.4 44 6.4 82 82 SSW 18 30 30.25 1024 10 16 0.00 0.00
8:55 am 08:55 Partly Cloudy with Drizzle 49 9.2 45 7 86 86 S 13 20 30.25 1024 10 16 0.00 0.00
9:15 am 09:15 Sunny with Drizzle 48 9 45 7 87 87 S 12 19 30.25 1024 10 16 0.00 0.00
9:35 am 09:35 Sunny with Drizzle 48 9 45 7.1 88 88 S 9 15 30.25 1024 10 16 0.00 0.00
9:55 am 09:55 Partly Cloudy with Light Rain 47 8.6 45 7.1 90 90 S 10 17 30.25 1025 10 16 0.01 0.25
10:15 am 10:15 Mostly Cloudy with Light Rain 48 9 45 7.4 90 90 SSE 10 17 30.23 1024 10 16 0.00 0.00
10:35 am 10:35 Mostly Cloudy 48 8.8 45 7 89 89 SSE 13 20 30.23 1024 10 16 0.00 0.00
10:55 am 10:55 Cloudy 48 9 45 7.2 89 89 SSE 10 17 30.22 1023 7 11 0.00 0.00
11:15 am 11:15 Mostly Cloudy 48 9 45 7 87 87 SSE 12 19 30.21 1023 10 16 0.00 0.00
11:35 am 11:35 Partly Cloudy with Drizzle 48 9 45 7.1 88 88 SE 10 17 30.20 1023 10 16 0.00 0.00
11:55 am 11:55 Partly Cloudy 49 9.2 44 6.6 84 84 SSE 9 15 30.20 1023 10 16 0.00 0.00
12:15 pm 12:15 Partly Cloudy with Light Rain 49 9.3 44 6.9 85 85 SE 9 15 30.20 1023 10 16 0.01 0.25
12:35 pm 12:35 Partly Cloudy with Light Rain 49 9.2 44 6.8 85 85 SSE 9 15 30.20 1023 10 16 0.01 0.25
12:55 pm 12:55 Partly Cloudy with Light Rain 49 9.4 45 7 85 85 SSE 7 11 30.19 1022 10 16 0.01 0.25
1:15 pm 13:15 Partly Cloudy with Drizzle 49 9.5 44 6.8 83 83 S 7 11 30.19 1022 10 16 0.00 0.00
1:35 pm 13:35 Mostly Cloudy with Light Rain 49 9.3 45 7 86 86 SSE 12 19 30.18 1022 5 8 0.00 0.00
1:55 pm 13:55 Cloudy with Light Rain 48 9.1 45 7.4 89 89 S 7 11 30.18 1022 7 11 0.01 0.25
2:15 pm 14:15 Cloudy with Light Rain 48 9 45 7.3 89 89 SSE 6 9 30.19 1022 7 11 0.02 0.51
2:35 pm 14:35 Cloudy with Rain 48 8.7 44 6.6 87 87 SE 8 13 30.19 1022 7 11 0.03 0.76
2:55 pm 14:55 Mostly Cloudy with Drizzle 48 8.8 44 6.8 87 87 SE 7 11 30.18 1022 10 16 0.03 0.76
3:15 pm 15:15 Mostly Cloudy with Rain 48 8.8 45 7 89 89 SSE 8 13 30.18 1022 10 16 0.01 0.25
3:35 pm 15:35 Mostly Cloudy with Light Rain 48 9 46 7.5 90 90 SSE 7 11 30.18 1022 10 16 0.01 0.25
3:55 pm 15:55 Cloudy with Rain 47 8.6 45 7.4 92 92 SE 6 9 30.17 1022 7 11 0.03 0.76
4:15 pm 16:15 Mostly Cloudy with Drizzle 48 8.7 46 7.6 93 93 SE 3 6 30.17 1022 10 16 0.01 0.25
4:35 pm 16:35 Mostly Cloudy with Light Rain 48 8.9 46 7.6 92 92 SE 5 7 30.17 1022 7 11 0.02 0.51
4:55 pm 16:55 Cloudy with Light Rain 48 9 46 7.9 93 93 SE 3 6 30.16 1021 7 11 0.05 1.27
5:15 pm 17:15 Cloudy with Rain 48 9 46 7.9 93 93 Calm 30.16 1021 4 6 0.02 0.51
5:35 pm 17:35 Mostly Cloudy with Light Rain 48 9.1 46 7.8 92 92 Calm 30.16 1021 10 16 0.03 0.76
5:55 pm 17:55 Cloudy with Rain 49 9.2 46 8 92 92 ESE 3 6 30.16 1021 7 11 0.04 1.02
6:15 pm 18:15 Cloudy 49 9.5 47 8.2 92 92 E 3 6 30.16 1021 10 16 0.01 0.25
6:35 pm 18:35 Cloudy 49 9.5 47 8.2 92 92 E 6 9 30.15 1021 10 16 0.01 0.25
6:55 pm 18:55 Cloudy 49 9.6 47 8.3 92 92 E 6 9 30.13 1020 10 16 0.01 0.25
7:15 pm 19:15 Cloudy 49 9.7 47 8.3 91 91 ESE 7 11 30.13 1020 10 16 0.00 0.00
7:35 pm 19:35 Cloudy 49 9.6 47 8.3 92 92 ESE 8 13 30.14 1021 10 16 0.00 0.00
7:55 pm 19:55 Cloudy 49 9.5 46 7.9 90 90 E 8 13 30.14 1021 10 16 0.00 0.00
8:15 pm 20:15 Cloudy 49 9.5 46 8 90 90 E 7 11 30.14 1021 10 16 0.00 0.00
8:35 pm 20:35 Cloudy 49 9.2 46 7.7 90 90 E 9 15 30.14 1021 10 16 0.00 0.00
8:55 pm 20:55 Mostly Cloudy 48 8.9 45 7.4 90 90 E 6 9 30.14 1021 10 16 0.00 0.00
9:15 pm 21:15 Partly Cloudy 47 8.1 45 7 93 93 E 8 13 30.15 1021 10 16 0.00 0.00
9:35 pm 21:35 Mostly Cloudy 47 8.1 45 7 93 93 E 6 9 30.15 1021 10 16 0.00 0.00
9:55 pm 21:55 Mostly Cloudy 46 7.5 44 6.7 95 95 ENE 7 11 30.15 1021 10 16 0.00 0.00
10:15 pm 22:15 Partly Cloudy 45 7.2 44 6.6 96 96 E 6 9 30.17 1022 10 16 0.00 0.00
10:35 pm 22:35 Mostly Cloudy 45 7 44 6.5 97 97 ENE 6 9 30.17 1022 10 16 0.00 0.00
10:55 pm 22:55 Cloudy 46 7.5 45 7 97 97 ENE 6 9 30.17 1022 10 16 0.00 0.00
11:15 pm 23:15 Cloudy 46 7.7 45 7.1 96 96 ENE 5 7 30.17 1022 10 16 0.00 0.00
11:35 pm 23:35 Cloudy 46 7.7 45 7 95 95 ENE 5 7 30.17 1022 10 16 0.00 0.00
11:55 pm 23:55 Cloudy 46 7.7 45 7 95 95 E 5 7 30.17 1022 10 16 0.00 0.00

Powered by AerisWeather